Location: Forst
(46.9333°N, 15.4333°E)
Time: 06:53:52
(UTC+00:00)

Lacrosse 5 rocket - Pass Details

Date: 21 April 2021
Orbit: 460 x 634 km, 57.0° (Epoch: 12 May)

Event Time Altitude Azimuth Distance (km) Brightness Sun altitude
Rises 20:48:34 0° 307° (NW) 2,757 6.1 -24.3°
Reaches altitude 10° 20:50:58 10° 318° (NW) 1,890 5.1 -24.5°
Maximum altitude 20:54:49 31° 21° (NNE) 1,058 3.0 -24.9°
Enters shadow 20:55:58 27° 50° (NE) 1,166 3.0 -25.0°
